Regional Weather Roundup
Issued by NWS

Home | Current Version | Previous Version | Text Only | Print | Product List | Glossary Off
Versions: 1 2 3 4 5 6 7 8 9 10 11 12 13 14 15 16 17 18 19 20 21 22 23 24 25 26 27 28 29 30 31 32 33 34 35 36 37 38 39 40 41 42 43 44 45 46 47 48 49 50

000
ASUS45 KCYS 240310
RWRWY

WYOMING REGIONAL WEATHER ROUNDUP
NATIONAL WEATHER SERVICE CHEYENNE WY
900 PM MDT MON OCT 23 2017

NOTE:  "FAIR" INDICATES FEW OR NO CLOUDS BELOW 12,000 FEET
WITH NO SIGNIFICANT WEATHER AND/OR OBSTRUCTIONS TO VISIBILITY.

WYZ001-240400-
YELLOWSTONE NATIONAL PARK

CITY           SKY/WX    TMP DP  RH WIND       PRES   REMARKS
LK YELLOWSTONE   N/A     26  20  77 CALM      30.70R
W YELLOWSTONE  NOT AVBL

$$
WYZ002>013-054>058-071-098>099-240400-
NORTHERN WYOMING

CITY           SKY/WX    TMP DP  RH WIND       PRES   REMARKS
JACKSON        FAIR      31  23  72 CALM      30.67R
CODY           FAIR      38  16  40 S7        30.60R WCI  33
GREYBULL       FAIR      47  18  31 NW13      30.55R
WORLAND        FAIR      34  19  54 SW9       30.57R WCI  27
SHERIDAN       FAIR      39  22  50 W13       30.57R WCI  31
BUFFALO        FAIR      40  16  37 N9        30.56S WCI  34
GILLETTE       FAIR      42  18  37 NW13      30.52R
HULETT         FAIR      43  19  39 NW13      30.51R
NEWCASTLE      FAIR      43  18  36 NW13G18   30.50R

$$
WYZ014>020-022>026-101>103-240400-
CENTRAL WYOMING

CITY           SKY/WX    TMP DP  RH WIND       PRES   REMARKS
BIG PINEY      FAIR      34  15  46 N12       30.63R WCI  25
PINEDALE       FAIR      34  19  55 W21       30.61F WCI  22
DUBOIS         FAIR      36  21  55 NW20G29   30.62S WCI  25
LANDER         FAIR      40  20  44 W10       30.59R WCI  33
RIVERTON       FAIR      42  18  37 CALM      30.59R
CASPER         FAIR      31  15  52 N6        30.58R WCI  25
DOUGLAS        FAIR      33  20  58 W10       30.55R WCI  25

$$
WYZ021-027>030-104>119-240400-
SOUTHERN WYOMING

CITY           SKY/WX    TMP DP  RH WIND       PRES   REMARKS
EVANSTON       FAIR      39  22  50 CALM      30.68R
KEMMERER       FAIR      37  21  52 NW8       30.67R WCI  31
FORT BRIDGER   FAIR      41  22  47 W5        30.70R
ROCK SPRINGS   FAIR      42  16  34 NW9       30.62R
DIXON          FAIR      39  22  50 CALM      30.60R
RAWLINS        FAIR      29  12  49 N5        30.59R WCI  24
SARATOGA       FAIR      32  18  55 N7        30.60R WCI  26
LARAMIE        FAIR      32  14  47 NW15      30.56R WCI  22
CHEYENNE       FAIR      38  13  35 NW9       30.53R WCI  31
TORRINGTON     MOCLDY    39  17  41 NW7       30.49R WCI  34
PINE BLUFFS    FAIR      32  19  59 MISG      30.51R

$$



USA.gov is the U.S. government's official web portal to all federal, state and local government web resources and services.